User: anonymous   Login
Location: Unspecified
(0.0000°N, 0.0000°E)
Time: 04:36:05
(UTC+02:00)
Language:

ARIANE 5 R/B - Orbit

View from above orbital plane
View from above orbital plane
View from above satellite
View from above satellite

Ground track
Ground track

The orbit data is extracted from the following two-line orbital elements,

1 27387U 02009B   16235.97246471 -.00000005  00000-0  13044-4 0  9997
2 27387  98.4207 185.5082 0031505 309.1670  50.6718 14.35905140758748
Epoch (UTC): 22 August 2016 23:20:20
Eccentricity: 0.0031505
inclination: 98.4207°
perigee height: 749 km
apogee height: 794 km
right ascension of ascending node: 185.5082°
argument of perigee: 309.1670°
revolutions per day: 14.35905140
mean anomaly at epoch: 50.6718°
orbit number at epoch: 75874

The dashed part of the orbit path shows where the satellite is in the earth's shadow,  

DLR